Preview of NWS' New Version of Forecast
This preview is not operational and should not be used for support decisions.

Regional Weather Roundup (RWR)

Issued by National Weather Service (NWS)

                            
000
ASUS44 KMEG 230000
RWRTN 
TENNESSEE HOURLY STATE WEATHER ROUNDUP
NATIONAL WEATHER SERVICE MEMPHIS TN
700 PM CDT WED MAY 22 2019

TNZ002-004-019-021-049-052-054-088>092-230100-
WEST TENNESSEE
  
CITY           SKY/WX    TMP DP  RH WIND       PRES   REMARKS
MEMPHIS INTL   FAIR      87  72  60 S12       29.96R HX  93           
NWS MEMPHIS      N/A     87 N/A N/A MISG        N/A                   
JACKSON        FAIR      84  73  69 S5        29.99R HX  90           
DYERSBURG      FAIR      85  72  65 S8        29.97R HX  91           
$$

TNZ008-025-027-028-033-062-065-066-230100-
NORTH MIDDLE TENNESSEE
  
CITY           SKY/WX    TMP DP  RH WIND       PRES   REMARKS
NASHVILLE      FAIR      87  61  41 S12       30.03S                  
CLARKSVILLE    FAIR      83  68  60 S8        30.00R                  
SMYRNA         FAIR      86  65  49 S7        30.05R                  
CROSSVILLE     FAIR      80  58  46 VRB3      30.15R                  
$$

TNZ061-075-076-078-094-096-097-230100-
SOUTH MIDDLE TENNESSEE
  
CITY           SKY/WX    TMP DP  RH WIND       PRES   REMARKS
$$

TNZ017-018-042-046-047-230100-
NORTHEAST TENNESSEE
  
CITY           SKY/WX    TMP DP  RH WIND       PRES   REMARKS
TRI CITIES     MOCLDY    82  64  54 S7        30.14R                  
$$

TNZ012-013-036-069-073-074-230100-
CENTRAL EAST TENNESSEE
  
CITY           SKY/WX    TMP DP  RH WIND       PRES   REMARKS
KNOXVILLE      FAIR      85  63  47 SW8       30.09R                  
OAK RIDGE      FAIR      87  61  41 VRB5      30.10S                  
$$

TNZ083-085-099-230100-
SOUTHEAST TENNESSEE
  
CITY           SKY/WX    TMP DP  RH WIND       PRES   REMARKS
CHATTANOOGA    FAIR      88  62  41 S6        30.09R                  
$$

SKY/WX REPORTED AS FAIR MEANS FEW OR NO CLOUDS BELOW
12 THOUSAND FEET.